TimeEDT,TemperatureF,Dew PointF,Humidity,Sea Level PressureIn,VisibilityMPH,Wind Direction,Wind SpeedMPH,Gust SpeedMPH,PrecipitationIn,Events,Conditions,WindDirDegrees,DateUTC
12:15 AM,73.4,71.6,94,30.04,10.0,SE,9.2,-,N/A,,Mostly Cloudy,140,2012-10-03 04:15:00
2:15 AM,75.2,73.4,94,30.03,5.0,SSE,10.4,-,0.02,Rain,Light Rain,150,2012-10-03 06:15:00
2:35 AM,73.4,73.4,100,30.03,10.0,SE,5.8,-,0.03,,Mostly Cloudy,130,2012-10-03 06:35:00
2:55 AM,73.4,71.6,94,30.03,10.0,East,4.6,-,0.04,,Overcast,100,2012-10-03 06:55:00
3:15 AM,73.4,71.6,94,30.03,10.0,SE,4.6,-,N/A,,Mostly Cloudy,130,2012-10-03 07:15:00
3:35 AM,73.4,73.4,100,30.03,10.0,SE,6.9,-,N/A,,Mostly Cloudy,130,2012-10-03 07:35:00
3:55 AM,73.4,73.4,100,30.03,9.0,ESE,5.8,-,N/A,Rain,Light Rain,120,2012-10-03 07:55:00
4:15 AM,73.4,73.4,100,30.02,9.0,ESE,4.6,-,N/A,Rain,Light Rain,110,2012-10-03 08:15:00
4:35 AM,75.2,73.4,94,30.04,10.0,ESE,6.9,-,0.01,Rain,Light Rain,120,2012-10-03 08:35:00
4:55 AM,75.2,73.4,94,30.04,10.0,ESE,6.9,-,0.01,,Overcast,110,2012-10-03 08:55:00
5:15 AM,75.2,73.4,94,30.03,10.0,East,6.9,-,N/A,,Mostly Cloudy,100,2012-10-03 09:15:00
5:35 AM,75.2,73.4,94,30.03,10.0,ESE,8.1,-,N/A,,Mostly Cloudy,120,2012-10-03 09:35:00
5:55 AM,75.2,73.4,94,30.04,10.0,ESE,5.8,-,N/A,,Scattered Clouds,120,2012-10-03 09:55:00
6:15 AM,75.2,73.4,94,30.05,10.0,ESE,5.8,-,N/A,,Clear,110,2012-10-03 10:15:00
6:55 AM,75.2,75.2,100,30.06,10.0,North,-9999.0,-,N/A,Rain,Light Rain,0,2012-10-03 10:55:00
7:15 AM,75.2,75.2,100,30.06,10.0,East,8.1,-,N/A,,Scattered Clouds,90,2012-10-03 11:15:00
7:35 AM,75.2,75.2,100,30.06,10.0,East,8.1,-,N/A,,Partly Cloudy,100,2012-10-03 11:35:00
8:15 AM,75.2,75.2,100,30.06,10.0,ESE,5.8,-,N/A,Thunderstorm,Mostly Cloudy,120,2012-10-03 12:15:00
8:35 AM,77.0,75.2,94,30.07,10.0,ESE,6.9,-,N/A,,Scattered Clouds,120,2012-10-03 12:35:00
8:55 AM,77.0,75.2,94,30.09,10.0,SE,5.8,-,N/A,Thunderstorm,Mostly Cloudy,130,2012-10-03 12:55:00
9:15 AM,77.0,77.0,100,30.09,10.0,SE,6.9,-,N/A,,Scattered Clouds,130,2012-10-03 13:15:00
9:35 AM,78.8,77.0,94,30.10,10.0,SE,5.8,-,N/A,,Partly Cloudy,130,2012-10-03 13:35:00
9:55 AM,80.6,77.0,89,30.10,10.0,ESE,9.2,-,N/A,,Partly Cloudy,120,2012-10-03 13:55:00
10:15 AM,82.4,77.0,84,30.10,10.0,SE,8.1,-,N/A,,Scattered Clouds,140,2012-10-03 14:15:00
10:35 AM,82.4,77.0,84,30.11,10.0,ESE,8.1,-,N/A,,Mostly Cloudy,120,2012-10-03 14:35:00
10:55 AM,82.4,77.0,84,30.11,10.0,SSE,5.8,-,N/A,,Scattered Clouds,160,2012-10-03 14:55:00
11:15 AM,82.4,77.0,84,30.11,10.0,SSE,8.1,21.9,N/A,,Partly Cloudy,150,2012-10-03 15:15:00
11:35 AM,84.2,77.0,79,30.11,10.0,SSE,8.1,-,N/A,,Scattered Clouds,150,2012-10-03 15:35:00
11:55 AM,84.2,77.0,79,30.10,10.0,SSE,10.4,-,N/A,Thunderstorm,Mostly Cloudy,150,2012-10-03 15:55:00
12:15 PM,84.2,77.0,79,30.11,10.0,South,9.2,16.1,N/A,Thunderstorm,Scattered Clouds,170,2012-10-03 16:15:00
12:35 PM,86.0,77.0,74,30.11,10.0,South,10.4,16.1,N/A,,Clear,170,2012-10-03 16:35:00
12:55 PM,84.2,77.0,79,30.12,10.0,South,11.5,18.4,N/A,Thunderstorm,Clear,180,2012-10-03 16:55:00
1:15 PM,86.0,77.0,74,30.11,10.0,South,13.8,19.6,N/A,Thunderstorm,Clear,180,2012-10-03 17:15:00
1:35 PM,84.2,77.0,79,30.11,10.0,South,11.5,-,N/A,,Clear,170,2012-10-03 17:35:00
1:55 PM,86.0,77.0,74,30.10,10.0,South,13.8,-,N/A,Thunderstorm,Partly Cloudy,190,2012-10-03 17:55:00
2:15 PM,86.0,77.0,74,30.11,10.0,SSW,12.7,-,N/A,Thunderstorm,Scattered Clouds,200,2012-10-03 18:15:00
2:35 PM,80.6,75.2,84,30.11,9.0,West,15.0,23.0,N/A,,Overcast,280,2012-10-03 18:35:00
2:55 PM,77.0,73.4,89,30.10,10.0,WNW,13.8,25.3,N/A,,Mostly Cloudy,290,2012-10-03 18:55:00
3:15 PM,78.8,73.4,83,30.10,10.0,NW,13.8,-,N/A,,Overcast,310,2012-10-03 19:15:00
3:35 PM,80.6,73.4,79,30.11,10.0,WNW,10.4,-,N/A,,Overcast,300,2012-10-03 19:35:00
3:55 PM,80.6,73.4,79,30.11,10.0,West,12.7,-,N/A,,Mostly Cloudy,280,2012-10-03 19:55:00
4:15 PM,80.6,73.4,79,30.11,10.0,WNW,11.5,-,N/A,,Mostly Cloudy,290,2012-10-03 20:15:00
4:35 PM,80.6,73.4,79,30.12,10.0,West,13.8,-,N/A,,Mostly Cloudy,280,2012-10-03 20:35:00
4:55 PM,80.6,73.4,79,30.11,10.0,West,15.0,-,N/A,,Mostly Cloudy,270,2012-10-03 20:55:00
5:15 PM,80.6,73.4,79,30.12,10.0,West,11.5,-,N/A,Thunderstorm,Partly Cloudy,270,2012-10-03 21:15:00
5:35 PM,78.8,73.4,83,30.12,10.0,West,13.8,17.3,N/A,,Partly Cloudy,280,2012-10-03 21:35:00
5:55 PM,78.8,73.4,83,30.12,10.0,West,12.7,-,N/A,,Partly Cloudy,280,2012-10-03 21:55:00
6:15 PM,80.6,73.4,79,30.12,10.0,West,10.4,-,N/A,Thunderstorm,Partly Cloudy,270,2012-10-03 22:15:00
6:35 PM,78.8,71.6,78,30.11,10.0,West,9.2,-,N/A,Thunderstorm,Thunderstorm,260,2012-10-03 22:35:00
6:55 PM,77.0,71.6,83,30.11,10.0,West,5.8,-,N/A,Thunderstorm,Clear,270,2012-10-03 22:55:00
7:15 PM,77.0,73.4,89,30.11,10.0,Calm,Calm,-,N/A,,Clear,0,2012-10-03 23:15:00
7:35 PM,77.0,73.4,89,30.12,10.0,East,5.8,-,N/A,Rain,Light Rain,80,2012-10-03 23:35:00
7:55 PM,77.0,71.6,83,30.12,10.0,Calm,Calm,-,N/A,Rain,Light Rain,0,2012-10-03 23:55:00
8:15 PM,77.0,73.4,89,30.12,10.0,ENE,3.5,-,N/A,,Clear,60,2012-10-04 00:15:00
8:35 PM,77.0,73.4,89,30.12,10.0,NE,4.6,-,N/A,,Clear,40,2012-10-04 00:35:00
8:55 PM,77.0,73.4,89,30.12,10.0,ENE,4.6,-,N/A,,Clear,70,2012-10-04 00:55:00
9:15 PM,77.0,73.4,89,30.14,10.0,East,3.5,-,N/A,,Clear,90,2012-10-04 01:15:00
9:35 PM,75.2,73.4,94,30.15,10.0,ENE,3.5,-,N/A,,Clear,70,2012-10-04 01:35:00
9:55 PM,75.2,73.4,94,30.15,10.0,East,6.9,-,N/A,,Clear,80,2012-10-04 01:55:00
10:15 PM,75.2,73.4,94,30.15,10.0,East,4.6,-,N/A,,Clear,100,2012-10-04 02:15:00
10:35 PM,75.2,73.4,94,30.16,10.0,ENE,3.5,-,N/A,,Clear,70,2012-10-04 02:35:00
10:55 PM,75.2,73.4,94,30.16,10.0,East,5.8,-,N/A,,Clear,80,2012-10-04 02:55:00
11:15 PM,75.2,73.4,94,30.16,10.0,East,8.1,-,N/A,,Clear,90,2012-10-04 03:15:00
11:35 PM,75.2,73.4,94,30.16,10.0,East,9.2,-,N/A,,Clear,80,2012-10-04 03:35:00
11:55 PM,75.2,73.4,94,30.16,10.0,East,8.1,-,N/A,,Clear,90,2012-10-04 03:55:00